sat.trackr.live / text

‹ back to catalog

STARLINK-36343

NORAD 67816 · 2026-032V

PAYLOAD ACTIVE UNKNOWN

§ Identity

Operator
Country
US
Launch date
2026-02-15
Launch site
AFWTR
Launch vehicle
Mass (kg)
RCS (m²)

Purposes: comms

External: N2YO · Heavens-Above · Gunter

§ Orbital elements

Epoch: 2026-05-25T02:11:29.359392Z

Period
93.91 min
Inclination
97.2857°
Eccentricity
0.0001265
Mean motion
15.33446098 rev/d
Perigee alt
464.7 km
Apogee alt
466.4 km
Semi-major
6,843.7 km
B*
2.3112e-4
RAAN
333.2499°
Arg perigee
89.9555°
Mean anomaly
270.1833°
Rev number
1,667

§ Raw data

STARLINK-363431 67816U 26032V   26145.09131203  .00007394  00000+0  23112-3 0  99922 67816  97.2857 333.2499 0001265  89.9555 270.1833 15.33446098 16673

JSON: /api/v1/satellites/67816 · /tle

For live sub-satellite position, see the globe view (requires WebGL).

§ Visibility from observer

Set your observer location to see the next 7 days of passes ≥ 10°. The values pass through the URL so the page stays shareable.

No JS? Fill the form by hand. The geolocation button needs JavaScript.